Flag for Congo Weather past 2 weeks in Brazzaville, Congo

Now
84 °F

Clear.


Feels Like: 87 °F
Forecast: 71 / 91 °F
Wind: 7 mph from Northwest

Location: Brazzaville / Maya-Maya

Current Time: Jul 28, 2014 at 5:05:06 PM

Latest Report: Jul 28, 2014 at 4:00 PM


Visibility: 4 mi

Pressure: 29.86 "Hg

Humidity: 55%

Dew point: 66 °F

Location of BrazzavilleLocation

Historic Weather in Brazzaville — Graph

°F

Brazzaville temperature yesterday

Maximum temperature yesterday: 88 °F (at 3:00 PM)
Minimum temperature yesterday: 66 °F (at 5:00 AM)
Average temperature yesterday: 75 °F

Past Weeks' High & Low Weather Summary

 TemperatureHumidityPressure
High88 °F (Jul 27, 3:00 PM)100% (Jul 27, 12:00 PM)30.12 "Hg (Jul 27, 12:00 PM)
Low63 °F (Jul 25, 7:00 AM)43% (Jul 26, 3:00 PM)29.86 "Hg (Jul 27, 4:00 PM)
Average74 °F74%30.01 "Hg
* Reported Jul 13 3:00 PM — Jul 28 3:00 PM, Brazzaville, Weather by CustomWeather, © 2014

Note: Actual official high and low records may vary slightly from our data, if they occured in-between our weather recording intervals... More about our weather records

Advertising

Brazzaville weather history for previous 24 hours

 ConditionsComfort  
Time TempWeatherWind HumidityBarometerVisibility
3:00 PM
Jul 28
84 °FClear.6 mph55%29.86 "Hg4 mi
2:00 PM82 °FClear.7 mph58%29.89 "Hg4 mi
1:00 PM81 °FClear.8 mph74%29.92 "Hg4 mi
12:00 PM79 °FPassing clouds.6 mph61%29.98 "Hg4 mi
11:00 AM75 °FPassing clouds.6 mph69%30.01 "Hg4 mi
10:00 AM72 °FPartly sunny.6 mph73%30.04 "Hg4 mi
9:00 AM72 °FPartly sunny.9 mph78%30.07 "Hg4 mi
8:00 AM70 °FFog.5 mph83%30.04 "Hg2 mi
7:00 AM68 °FFog.3 mph88%30.04 "Hg2 mi
6:00 AM68 °FPassing clouds.3 mph88%30.01 "Hg4 mi
5:00 AM68 °FClear.3 mph88%30.01 "Hg4 mi
4:00 AM70 °FClear.3 mph83%29.98 "Hg4 mi
3:00 AM70 °FClear.2 mph83%29.98 "Hg4 mi
2:00 AM72 °FClear.3 mph78%29.98 "Hg4 mi
1:00 AM73 °FClear.5 mph74%29.98 "Hg4 mi
12:00 AM73 °FClear.2 mph74%29.98 "Hg4 mi
11:00 PM
Jul 27
75 °FClear.2 mph69%29.98 "Hg4 mi
10:00 PM77 °FClear.2 mph69%29.98 "Hg4 mi
9:00 PM79 °FClear.3 mph65%29.95 "Hg4 mi
8:00 PM81 °FClear.3 mph62%29.92 "Hg4 mi
7:00 PM82 °FClear.2 mph58%29.92 "Hg4 mi
6:00 PM84 °FClear.2 mph55%29.89 "Hg4 mi
5:00 PM86 °FClear.6 mph49%29.86 "Hg4 mi
Weather by CustomWeather, © 2014

See weather overviewHow to use our weather pages